Weather History for KFOZ - October, 2012

Change the Weather History Date:

Sunday, October 14, 2012

  Actual Average (KGPZ) Record (KGPZ)
Temperature  
Mean Temperature 42 °F -  
Max Temperature 55 °F 55 °F 80 °F (1934)
Min Temperature 28 °F 35 °F 14 °F (1923)
Degree Days  
Heating Degree Days 24    
Moisture  
Dew Point 33 °F    
Average Humidity 77    
Maximum Humidity 100    
Minimum Humidity 51    
Precipitation  
Precipitation 0.00 in - - ()
Sea Level Pressure  
Sea Level Pressure 29.84 in    
Wind  
Wind Speed 1 mph (NNW)    
Max Wind Speed 7 mph    
Max Gust Speed -    
Visibility 6 miles    
Events Fog    
Averages and records for this station are not official NWS values.
T = Trace of Precipitation, MM = Missing Value Source: NWS Daily Summary

Daily Weather History Graph

Daily Weather History Graph

Search for Another Location

Airport or City:

Trip Planner

Search our weather history database for the weather conditions in past years. The results will help you decide how hot, cold, wet, or windy it might be!

Date:

Astronomy

Oct. 14, 2012 Rise Set
Actual Time 7:32 AM CDT 6:27 PM CDT
Civil Twilight 7:01 AM CDT 6:58 PM CDT
Nautical Twilight 6:25 AM CDT 7:34 PM CDT
Astronomical Twilight 5:50 AM CDT 8:09 PM CDT
Moon 6:31 AM CDT (10/14) 5:46 PM CDT (10/14)
Length of Visible Light 11h 56m
Length of Day
10h 54m
Waning Crescent, 1% of the Moon is Illuminated
Oct 14
Waning Crescent
Oct 15
New
Oct 21
First Quarter
Oct 29
Full
Nov 6
Last Quarter

Hourly Weather History & Observations

Time (CDT) Temp. Windchill Dew Point Humidity Pressure Visibility Wind Dir Wind Speed Gust Speed Precip Events Conditions
12:13 AM 30.2 °F - 28.4 °F 93% 29.81 in 7.0 mi Calm Calm - N/A   Mostly Cloudy
12:33 AM 30.2 °F - 28.4 °F 93% 29.81 in 0.5 mi Calm Calm - N/A Fog Light Freezing Fog
12:53 AM 30.2 °F - 28.4 °F 93% 29.81 in 0.2 mi Calm Calm - N/A Fog Light Freezing Fog
1:13 AM 28.4 °F - 26.6 °F 93% 29.81 in 2.5 mi Calm Calm - N/A   Overcast
1:34 AM 30.2 °F - 28.4 °F 93% 29.81 in 0.5 mi Calm Calm - N/A Fog Light Freezing Fog
1:53 AM 28.4 °F - 26.6 °F 93% 29.82 in 0.2 mi Calm Calm - N/A Fog Light Freezing Fog
2:13 AM 28.4 °F - 28.4 °F 100% 29.82 in 0.5 mi Calm Calm - N/A Fog Light Freezing Fog
2:33 AM 28.4 °F - 26.6 °F 93% 29.82 in 0.5 mi Calm Calm - N/A Fog Light Freezing Fog
2:53 AM 28.4 °F - 28.4 °F 100% 29.81 in 0.2 mi Calm Calm - N/A Fog Light Freezing Fog
3:13 AM 28.4 °F - 26.6 °F 93% 29.82 in 0.2 mi Calm Calm - N/A Fog Light Freezing Fog
3:33 AM 30.2 °F - 28.4 °F 93% 29.82 in 0.2 mi Calm Calm - N/A Fog Light Freezing Fog
3:53 AM 28.4 °F - 28.4 °F 100% 29.83 in 0.2 mi Calm Calm - N/A Fog Light Freezing Fog
4:13 AM 28.4 °F - 26.6 °F 93% 29.83 in 0.2 mi Calm Calm - N/A Fog Light Freezing Fog
4:33 AM 28.4 °F - 26.6 °F 93% 29.83 in 0.2 mi Calm Calm - N/A Fog Light Freezing Fog
4:53 AM 28.4 °F - 28.4 °F 100% 29.84 in 0.2 mi Calm Calm - N/A Fog Light Freezing Fog
5:13 AM 30.2 °F - 28.4 °F 93% 29.84 in 0.2 mi Calm Calm - N/A Fog Light Freezing Fog
5:33 AM 30.2 °F - 28.4 °F 93% 29.85 in 0.2 mi Calm Calm - N/A Fog Light Freezing Fog
5:53 AM 28.4 °F - 28.4 °F 100% 29.85 in 0.2 mi Calm Calm - N/A Fog Light Freezing Fog
6:13 AM 28.4 °F - 26.6 °F 93% 29.85 in 0.2 mi Calm Calm - N/A Fog Light Freezing Fog
6:33 AM 28.4 °F - 28.4 °F 100% 29.85 in 0.2 mi Calm Calm - N/A Fog Light Freezing Fog
6:53 AM 28.4 °F - 28.4 °F 100% 29.86 in 0.5 mi Calm Calm - N/A Fog Light Freezing Fog
7:13 AM 30.2 °F - 28.4 °F 93% 29.85 in 0.5 mi Calm Calm - N/A Fog Light Freezing Fog
7:33 AM 30.2 °F - 28.4 °F 93% 29.86 in 0.5 mi Calm Calm - N/A Fog Light Freezing Fog
7:53 AM 30.2 °F - 28.4 °F 93% 29.86 in 0.2 mi Calm Calm - N/A Fog Light Freezing Fog
8:13 AM 32.0 °F - 30.2 °F 93% 29.86 in 0.2 mi Calm Calm - N/A Fog Fog
8:33 AM 33.8 °F - 30.2 °F 87% 29.86 in 0.2 mi Calm Calm - N/A Fog Fog
8:53 AM 33.8 °F - 32.0 °F 93% 29.86 in 0.2 mi Calm Calm - N/A Fog Fog
9:13 AM 37.4 °F - 35.6 °F 93% 29.86 in 0.8 mi Calm Calm - N/A   Overcast
9:33 AM 39.2 °F - 37.4 °F 93% 29.87 in 2.5 mi Calm Calm - N/A   Overcast
9:53 AM 39.2 °F - 39.2 °F 100% 29.86 in 4.0 mi Calm Calm - N/A   Overcast
10:13 AM 42.8 °F - 41.0 °F 93% 29.86 in 5.0 mi Calm Calm - N/A   Mostly Cloudy
10:33 AM 44.6 °F - 42.8 °F 93% 29.86 in 7.0 mi Calm Calm - N/A   Mostly Cloudy
10:53 AM 46.4 °F - 44.6 °F 93% 29.85 in 10.0 mi Calm Calm - N/A   Mostly Cloudy
11:13 AM 46.4 °F 44.3 °F 44.6 °F 93% 29.85 in 10.0 mi North 4.6 mph - N/A   Scattered Clouds
11:33 AM 51.8 °F - 42.8 °F 71% 29.85 in 10.0 mi North 6.9 mph - N/A   Clear
11:53 AM 53.6 °F - 39.2 °F 58% 29.84 in 10.0 mi NNW 5.8 mph - N/A   Clear
12:13 PM 55.4 °F - 37.4 °F 51% 29.85 in 10.0 mi North 5.8 mph - N/A   Clear
12:33 PM 53.6 °F - 37.4 °F 54% 29.84 in 10.0 mi NNE 6.9 mph - N/A   Mostly Cloudy
12:53 PM 55.4 °F - 37.4 °F 51% 29.83 in 10.0 mi North 6.9 mph - N/A   Mostly Cloudy
1:13 PM 53.6 °F - 37.4 °F 54% 29.83 in 10.0 mi North 3.5 mph - N/A   Mostly Cloudy
1:33 PM 55.4 °F - 37.4 °F 51% 29.83 in 10.0 mi WNW 6.9 mph - N/A   Mostly Cloudy
1:53 PM 53.6 °F - 37.4 °F 54% 29.83 in 10.0 mi NNW 4.6 mph - N/A   Mostly Cloudy
2:13 PM 53.6 °F - 37.4 °F 54% 29.82 in 10.0 mi NW 5.8 mph - N/A   Overcast
2:33 PM 55.4 °F - 37.4 °F 51% 29.82 in 10.0 mi North 4.6 mph - N/A   Scattered Clouds
3:13 PM 55.4 °F - 37.4 °F 51% 29.82 in 10.0 mi North 4.6 mph - N/A   Mostly Cloudy
3:34 PM 53.6 °F - 37.4 °F 54% 29.82 in 10.0 mi NW 5.8 mph - N/A   Mostly Cloudy
3:53 PM 53.6 °F - 37.4 °F 54% 29.82 in 10.0 mi NNW 6.9 mph - N/A   Mostly Cloudy
4:13 PM 53.6 °F - 37.4 °F 54% 29.82 in 10.0 mi NNW 5.8 mph - N/A   Mostly Cloudy
4:33 PM 53.6 °F - 37.4 °F 54% 29.83 in 10.0 mi WNW 5.8 mph - N/A   Scattered Clouds
4:53 PM 53.6 °F - 37.4 °F 54% 29.83 in 10.0 mi WNW 4.6 mph - N/A   Scattered Clouds
5:13 PM 53.6 °F - 35.6 °F 51% 29.83 in 10.0 mi NW 4.6 mph - N/A   Mostly Cloudy
5:33 PM 53.6 °F - 35.6 °F 51% 29.84 in 10.0 mi NW 4.6 mph - N/A   Overcast
5:53 PM 53.6 °F - 35.6 °F 51% 29.84 in 10.0 mi NNW 3.5 mph - N/A   Overcast
6:13 PM 53.6 °F - 35.6 °F 51% 29.84 in 10.0 mi NNW 3.5 mph - N/A   Overcast
6:33 PM 51.8 °F - 35.6 °F 54% 29.85 in 10.0 mi NNW 3.5 mph - N/A   Scattered Clouds
6:53 PM 48.2 °F - 33.8 °F 58% 29.85 in 10.0 mi Calm Calm - N/A   Clear
7:13 PM 48.2 °F - 33.8 °F 58% 29.85 in 10.0 mi NW 3.5 mph - N/A   Clear
7:33 PM 48.2 °F - 33.8 °F 58% 29.86 in 10.0 mi NNW 4.6 mph - N/A   Clear
7:53 PM 46.4 °F 44.3 °F 30.2 °F 53% 29.86 in 10.0 mi NNW 4.6 mph - N/A   Clear
8:13 PM 46.4 °F 45.2 °F 30.2 °F 53% 29.87 in 10.0 mi NNW 3.5 mph - N/A   Clear
8:33 PM 44.6 °F - 30.2 °F 57% 29.87 in 10.0 mi Calm Calm - N/A   Clear
8:53 PM 41.0 °F - 30.2 °F 65% 29.87 in 10.0 mi Calm Calm - N/A   Clear
9:13 PM 39.2 °F - 30.2 °F 70% 29.87 in 10.0 mi Calm Calm - N/A   Clear
9:33 PM 39.2 °F - 30.2 °F 70% 29.87 in 10.0 mi Calm Calm - N/A   Clear
9:53 PM 35.6 °F - 28.4 °F 75% 29.87 in 10.0 mi Calm Calm - N/A   Clear
10:13 PM 33.8 °F - 28.4 °F 81% 29.87 in 10.0 mi Calm Calm - N/A   Clear
10:33 PM 35.6 °F - 28.4 °F 75% 29.88 in 10.0 mi Calm Calm - N/A   Clear
10:53 PM 35.6 °F - 28.4 °F 75% 29.88 in 10.0 mi Calm Calm - N/A   Clear
11:13 PM 33.8 °F - 28.4 °F 81% 29.88 in 10.0 mi Calm Calm - N/A   Clear
11:33 PM 32.0 °F - 26.6 °F 80% 29.88 in 10.0 mi Calm Calm - N/A   Clear
11:53 PM 30.2 °F - 26.6 °F 86% 29.88 in 10.0 mi Calm Calm - N/A   Clear